Latest Weather Observations for Fitzroy Crossing

IDW60801

Issued at 7:05 pm WST Saturday 26 July 2014 (issued every 30 minutes, with the page automatically refreshed every 10 minutes)

About weather observations | Map of weather stations | Latest weather observations for WA | Other Formats
Station Details ID: 003093 Name: FITZROY CROSSING AERO Lat: -18.18 Lon: 125.56 Height: 114.5 m
Data from the previous 72 hours. | See also: Recent months at Fitzroy Crossing
Date/Time
WST
Temp
°C
App
Temp
°C
Dew
Point
Rel
Hum
%
Delta-T
°C
Wind Press
QNH
hPa
Press
MSL
hPa
Rain
since 9 am
mm
Dir
 
Spd
km/h
Gust
km/h
Spd
kts
Gust
kts
26/07:00pm 24.9 21.6 2.4 23 10.8 SE 9 11 5 6 1018.2 1017.8 0.0
26/06:30pm 24.7 21.1 2.8 24 10.6 SE 11 11 6 6 1017.9 - 0.0
26/06:00pm 26.3 23.5 2.9 22 11.5 ESE 7 9 4 5 1017.6 1017.2 0.0
26/05:30pm 27.4 24.7 2.5 20 12.3 SE 6 7 3 4 1017.2 - 0.0
26/05:00pm 30.0 26.9 1.5 16 14.0 E 7 9 4 5 1017.1 1016.7 0.0
26/04:30pm 31.1 27.5 0.5 14 14.9 E 9 17 5 9 1016.9 - 0.0
26/04:00pm 31.6 27.5 -0.1 13 15.3 E 11 19 6 10 1016.8 1016.4 0.0
26/03:30pm 31.7 26.5 -0.1 13 15.4 NE 17 24 9 13 1016.7 - 0.0
26/03:00pm 32.2 28.2 0.3 13 15.6 ENE 11 15 6 8 1016.5 1016.1 0.0
26/02:30pm 31.7 28.4 -0.1 13 15.4 ESE 7 17 4 9 1016.6 - 0.0
26/02:00pm 31.4 26.1 -0.3 13 15.3 ENE 17 26 9 14 1016.8 1016.4 0.0
26/01:30pm 31.6 27.5 -0.1 13 15.4 NE 11 20 6 11 1016.9 - 0.0
26/01:00pm 31.3 26.9 0.6 14 15.0 ENE 13 19 7 10 1017.3 1016.9 0.0
26/12:30pm 31.8 27.5 1.0 14 15.2 E 13 22 7 12 1017.8 - 0.0
26/12:00pm 31.4 25.9 0.7 14 15.0 ENE 19 28 10 15 1018.3 1017.9 0.0
26/11:30am 31.0 27.5 1.4 15 14.6 ESE 9 19 5 10 1018.7 - 0.0
26/11:00am 30.0 25.3 3.1 18 13.6 E 17 24 9 13 1019.3 1018.9 0.0
26/10:30am 28.6 24.0 3.5 20 12.7 E 17 26 9 14 1020.0 - 0.0
26/10:00am 26.4 22.1 3.0 22 11.5 E 15 20 8 11 1020.4 1020.0 0.0
26/09:30am 25.5 21.1 2.9 23 11.1 E 15 20 8 11 1020.7 - 0.0
26/09:00am 23.8 19.4 2.6 25 10.2 E 15 20 8 11 1020.7 1020.4 0.0
26/08:30am 21.9 18.7 3.1 29 9.0 ESE 9 13 5 7 1020.8 - 0.0
26/08:00am 19.7 17.1 3.4 34 7.7 SSE 6 9 3 5 1020.5 1020.1 0.0
26/07:30am 17.9 15.1 3.0 37 6.9 SSE 7 11 4 6 1020.2 - 0.0
26/07:00am 15.7 13.1 3.2 43 5.7 S 6 9 3 5 1019.7 1019.3 0.0
26/06:30am 14.1 11.0 3.6 49 4.8 S 9 11 5 6 1019.4 - 0.0
26/06:00am 13.2 10.5 3.6 52 4.3 SSE 7 11 4 6 1019.0 1018.6 0.0
26/05:30am 14.0 11.3 3.8 50 4.7 S 7 9 4 5 1018.9 - 0.0
26/05:00am 14.3 11.2 3.5 48 4.9 S 9 13 5 7 1018.8 1018.4 0.0
26/04:30am 15.0 11.1 3.2 45 5.4 S 13 15 7 8 1018.7 - 0.0
26/04:00am 14.8 11.3 3.6 47 5.1 S 11 13 6 7 1018.5 1018.1 0.0
26/03:30am 14.7 12.0 3.5 47 5.1 SE 7 9 4 5 1018.5 - 0.0
26/03:00am 14.3 12.8 3.2 47 5.0 CALM 0 0 0 0 1018.4 1018.0 0.0
26/02:30am 14.8 12.1 3.6 47 5.1 ESE 7 7 4 4 1018.4 - 0.0
26/02:00am 13.6 12.1 2.8 48 4.8 CALM 0 0 0 0 1018.2 1017.8 0.0
26/01:30am 13.0 10.2 2.0 47 4.8 N 6 9 3 5 1018.2 - 0.0
26/01:00am 14.5 11.8 2.7 45 5.3 NNW 6 7 3 4 1018.2 1017.8 0.0
26/12:30am 14.3 11.5 2.2 44 5.4 N 6 11 3 6 1018.3 - 0.0
26/12:00am 16.1 13.7 2.2 39 6.2 SE 4 6 2 3 1018.3 1017.9 0.0
 
Date/Time
WST
Temp
°C
App
Temp
°C
Dew
Point
Rel
Hum
%
Delta-T
°C
Wind Press
QNH
hPa
Press
MSL
hPa
Rain
since 9 am
mm
Dir
 
Spd
km/h
Gust
km/h
Spd
kts
Gust
kts
25/11:30pm 17.5 14.6 2.7 37 6.8 SSE 7 9 4 5 1018.4 - 0.0
25/11:00pm 18.4 15.1 2.7 35 7.2 SSE 9 11 5 6 1018.6 1018.2 0.0
25/10:30pm 19.6 15.9 2.5 32 8.0 SSE 11 13 6 7 1018.7 - 0.0
25/10:00pm 20.2 16.1 2.5 31 8.3 SSE 13 15 7 8 1018.8 1018.4 0.0
25/09:30pm 20.8 16.8 2.6 30 8.6 S 13 17 7 9 1018.7 - 0.0
25/09:00pm 21.6 17.6 2.8 29 8.9 SSE 13 19 7 10 1018.6 1018.2 0.0
25/08:30pm 22.3 17.5 2.4 27 9.4 SSE 17 20 9 11 1018.3 - 0.0
25/08:00pm 22.9 18.1 2.4 26 9.7 S 17 24 9 13 1018.1 1017.7 0.0
25/07:30pm 23.5 18.8 2.9 26 9.9 SSE 17 20 9 11 1017.9 - 0.0
25/07:00pm 23.4 19.0 2.8 26 9.9 S 15 19 8 10 1017.6 1017.2 0.0
25/06:30pm 24.1 19.7 2.9 25 10.3 S 15 17 8 9 1017.3 - 0.0
25/06:00pm 25.2 21.3 3.2 24 10.8 S 13 17 7 9 1017.0 1016.6 0.0
25/05:30pm 26.4 22.8 3.0 22 11.6 S 11 13 6 7 1016.7 - 0.0
25/05:00pm 28.1 24.9 3.0 20 12.5 SSE 9 11 5 6 1016.4 1016.0 0.0
25/04:30pm 29.0 24.9 2.3 18 13.2 SSE 13 20 7 11 1016.2 - 0.0
25/04:00pm 29.2 24.8 2.5 18 13.3 SSE 15 22 8 12 1016.0 1015.6 0.0
25/03:30pm 29.6 26.0 2.8 18 13.5 SE 11 17 6 9 1015.8 - 0.0
25/03:00pm 29.4 25.4 2.6 18 13.4 SE 13 19 7 10 1015.9 1015.5 0.0
25/02:30pm 29.2 25.5 2.5 18 13.3 SE 11 22 6 12 1015.9 - 0.0
25/02:00pm 28.8 24.2 1.3 17 13.4 SSE 15 22 8 12 1016.2 1015.8 0.0
25/01:30pm 28.9 24.0 2.2 18 13.2 SSE 17 28 9 15 1016.5 - 0.0
25/01:00pm 28.9 24.0 2.2 18 13.2 SE 17 28 9 15 1016.8 1016.4 0.0
25/12:30pm 28.1 23.1 1.6 18 12.9 SE 17 26 9 14 1017.2 - 0.0
25/12:00pm 28.2 23.3 1.7 18 12.9 SE 17 28 9 15 1017.8 1017.4 0.0
25/11:30am 27.1 21.6 0.8 18 12.5 SE 19 26 10 14 1018.4 - 0.0
25/11:00am 25.6 20.4 0.3 19 11.8 SE 17 24 9 13 1019.0 1018.6 0.0
25/10:30am 25.3 20.2 0.7 20 11.6 SE 17 28 9 15 1019.3 - 0.0
25/10:00am 24.4 19.0 1.3 22 10.9 E 19 28 10 15 1019.7 1019.3 0.0
25/09:30am 23.5 18.8 0.6 22 10.6 E 15 24 8 13 1019.9 - 0.0
25/09:00am 22.0 16.9 0.5 24 9.8 ESE 17 22 9 12 1020.1 1019.7 0.0
25/08:30am 21.5 17.2 1.2 26 9.3 SE 13 22 7 12 1019.9 - 0.0
25/08:00am 18.9 14.6 1.0 30 8.0 SE 13 19 7 10 1019.8 1019.4 0.0
25/07:30am 17.3 13.4 0.9 33 7.2 SSE 11 17 6 9 1019.5 - 0.0
25/07:00am 15.5 11.6 1.3 38 6.2 SSE 11 13 6 7 1019.2 1018.8 0.0
25/06:30am 12.7 9.3 2.0 48 4.6 S 9 13 5 7 1018.8 - 0.0
25/06:00am 13.1 10.1 1.8 46 4.9 S 7 13 4 7 1018.3 1017.9 0.0
25/05:30am 13.3 10.3 1.9 46 5.0 S 7 9 4 5 1017.8 - 0.0
25/05:00am 13.7 10.4 2.3 46 5.0 S 9 13 5 7 1017.4 1017.0 0.0
25/04:30am 13.3 9.6 2.2 47 4.9 SSW 11 13 6 7 1017.1 - 0.0
25/04:00am 13.6 10.3 2.5 47 4.9 S 9 11 5 6 1017.1 1016.7 0.0
25/03:30am 14.5 11.2 2.7 45 5.3 S 9 11 5 6 1016.9 - 0.0
25/03:00am 14.6 11.3 2.5 44 5.4 S 9 11 5 6 1016.9 1016.5 0.0
25/02:30am 14.2 12.6 2.5 45 5.2 CALM 0 0 0 0 1016.7 - 0.0
25/02:00am 15.8 12.8 2.2 40 6.1 S 7 11 4 6 1016.3 1015.9 0.0
25/01:30am 17.5 13.4 2.3 36 6.9 S 13 17 7 9 1016.2 - 0.0
25/01:00am 17.0 13.7 2.6 38 6.6 S 9 15 5 8 1016.5 1016.1 0.0
25/12:30am 16.8 13.8 2.0 37 6.7 SE 7 9 4 5 1016.7 - 0.0
25/12:00am 18.5 14.7 1.9 33 7.6 SE 11 15 6 8 1016.8 1016.4 0.0
 
Date/Time
WST
Temp
°C
App
Temp
°C
Dew
Point
Rel
Hum
%
Delta-T
°C
Wind Press
QNH
hPa
Press
MSL
hPa
Rain
since 9 am
mm
Dir
 
Spd
km/h
Gust
km/h
Spd
kts
Gust
kts
24/11:30pm 19.5 14.3 2.4 32 7.9 S 19 26 10 14 1016.7 - 0.0
24/11:00pm 18.6 14.2 2.9 35 7.3 SSW 15 19 8 10 1016.8 1016.4 0.0
24/10:30pm 20.0 16.0 2.8 32 8.1 S 13 17 7 9 1017.0 - 0.0
24/10:00pm 20.1 16.5 2.9 32 8.1 S 11 17 6 9 1016.9 1016.5 0.0
24/09:30pm 21.2 17.2 3.0 30 8.7 S 13 17 7 9 1016.9 - 0.0
24/09:00pm 21.6 17.4 3.8 31 8.6 S 15 19 8 10 1016.7 1016.3 0.0
24/08:30pm 21.4 17.6 4.0 32 8.5 S 13 17 7 9 1016.6 - 0.0
24/08:00pm 22.1 18.4 4.2 31 8.8 S 13 17 7 9 1016.2 1015.8 0.0
24/07:30pm 22.6 18.5 4.2 30 9.0 S 15 19 8 10 1015.8 - 0.0
24/07:00pm 22.9 18.8 4.4 30 9.1 S 15 17 8 9 1015.3 1014.9 0.0
24/06:30pm 23.3 19.6 4.3 29 9.4 SSW 13 13 7 7 1014.8 - 0.0
24/06:00pm 24.2 20.8 4.0 27 10.0 SSW 11 13 6 7 1014.4 1014.0 0.0
24/05:30pm 25.7 22.3 4.2 25 10.8 SSW 11 15 6 8 1014.3 - 0.0
24/05:00pm 27.3 22.7 3.7 22 11.9 SSW 17 24 9 13 1014.1 1013.7 0.0
24/04:30pm 28.2 23.4 4.5 22 12.2 S 19 24 10 13 1014.0 - 0.0
24/04:00pm 28.7 24.3 4.9 22 12.3 SSW 17 24 9 13 1013.7 1013.4 0.0
24/03:30pm 29.3 24.5 4.7 21 12.7 S 19 26 10 14 1013.4 - 0.0
24/03:00pm 29.5 25.9 4.9 21 12.8 SSW 13 24 7 13 1013.3 1013.0 0.0
24/02:30pm 29.4 24.5 4.1 20 13.0 SSW 19 24 10 13 1013.4 - 0.0
24/02:00pm 29.3 25.5 4.0 20 12.9 SSW 13 22 7 12 1013.5 1013.2 0.0
24/01:30pm 29.4 26.4 4.1 20 13.0 S 9 24 5 13 1014.1 - 0.0
24/01:00pm 28.9 25.7 5.1 22 12.4 S 11 19 6 10 1014.5 1014.1 0.0
24/12:30pm 28.5 25.2 4.7 22 12.3 SSE 11 20 6 11 1015.0 - 0.0
24/12:00pm 28.2 24.9 4.5 22 12.1 SSE 11 26 6 14 1015.4 1015.0 0.0
24/11:30am 27.4 22.8 3.8 22 11.9 S 17 26 9 14 1016.0 - 0.0
24/11:00am 26.8 23.0 4.0 23 11.5 SE 13 26 7 14 1016.5 1016.1 0.0
24/10:30am 26.1 22.0 4.6 25 10.9 SSE 15 24 8 13 1017.0 - 0.0
24/10:00am 25.6 21.8 4.1 25 10.7 SE 13 20 7 11 1017.4 1017.0 0.0
24/09:30am 24.4 20.3 4.2 27 10.1 SE 15 20 8 11 1017.7 - 0.0
24/09:00am 24.0 20.0 4.9 29 9.6 SE 15 22 8 12 1017.9 1017.5 0.0
24/08:30am 22.5 18.4 4.5 31 8.9 SE 15 22 8 12 1017.8 - 0.0
24/08:00am 20.7 17.7 5.9 38 7.4 SE 11 17 6 9 1017.6 1017.2 0.0
24/07:30am 19.5 16.6 6.3 42 6.6 SSE 11 13 6 7 1017.3 - 0.0
24/07:00am 18.4 16.0 6.9 47 5.8 S 9 11 5 6 1016.9 1016.5 0.0
24/06:30am 17.3 14.9 7.1 51 5.1 SSE 9 11 5 6 1016.5 - 0.0
24/06:00am 17.2 14.3 6.7 50 5.2 S 11 15 6 8 1016.3 1015.9 0.0
24/05:30am 18.0 14.8 6.8 48 5.6 S 13 17 7 9 1016.0 - 0.0
24/05:00am 18.7 15.1 6.9 46 5.9 SSE 15 20 8 11 1015.6 1015.2 0.0
24/04:30am 18.1 15.5 7.8 51 5.3 SE 11 15 6 8 1015.4 - 0.0
24/04:00am 18.5 16.0 8.2 51 5.3 SE 11 17 6 9 1015.2 1014.8 0.0
24/03:30am 19.1 15.9 8.4 50 5.6 ESE 15 19 8 10 1014.6 - 0.0
24/03:00am 18.5 15.3 8.5 52 5.2 SSW 15 19 8 10 1014.1 1013.7 0.0
24/02:30am 19.1 16.3 8.7 51 5.4 SSW 13 15 7 8 1014.1 - 0.0
24/02:00am 19.3 16.7 9.5 53 5.2 S 13 17 7 9 1014.1 1013.7 0.0
24/01:30am 19.9 18.1 9.5 51 5.6 S 9 13 5 7 1014.2 - 0.0
24/01:00am 20.0 18.7 9.9 52 5.4 S 7 9 4 5 1014.2 1013.8 0.0
24/12:30am 20.4 18.8 10.2 52 5.5 S 9 11 5 6 1014.2 - 0.0
24/12:00am 21.2 18.5 10.4 50 5.9 S 15 19 8 10 1014.3 1013.9 0.0
 
Date/Time
WST
Temp
°C
App
Temp
°C
Dew
Point
Rel
Hum
%
Delta-T
°C
Wind Press
QNH
hPa
Press
MSL
hPa
Rain
since 9 am
mm
Dir
 
Spd
km/h
Gust
km/h
Spd
kts
Gust
kts
23/11:30pm 21.9 18.8 10.4 48 6.3 SSE 17 20 9 11 1014.3 - 0.0
23/11:00pm 22.5 19.9 10.6 47 6.6 S 15 20 8 11 1014.5 1014.1 0.0
23/10:30pm 21.2 19.7 10.7 51 5.8 SW 9 13 5 7 1014.5 - 0.0
23/10:00pm 22.2 20.4 10.7 48 6.4 SSE 11 13 6 7 1014.5 1014.1 0.0
23/09:30pm 22.7 20.9 10.8 47 6.6 S 11 13 6 7 1014.5 - 0.0
23/09:00pm 23.8 21.6 10.8 44 7.3 S 13 15 7 8 1014.4 1014.0 0.0
23/08:30pm 24.3 22.1 10.9 43 7.5 S 13 17 7 9 1014.2 - 0.0
23/08:00pm 24.5 22.3 10.8 42 7.7 S 13 13 7 7 1013.9 1013.5 0.0
23/07:30pm 24.6 22.7 10.5 41 7.9 SSW 11 13 6 7 1013.7 - 0.0

Other Formats:

Comma delimited format used in spreadsheet applications
http://www.bom.gov.au/fwo/IDW60801/IDW60801.94206.axf

JavaScript Object Notation format (JSON) in row-major order
http://www.bom.gov.au/fwo/IDW60801/IDW60801.94206.json